When you browse on this site, cookies collect data to enhance your experience and personalize the content and advertising you see.
Visit our Privacy Policy to learn more. By continuing to use the site, you agree to this use of cookies and data.
  • In United Kingdom
  • List of Countries
  • For 7 days
  • Water Temperature
  • Satellite Maps
  • Weather Map
  • Weather Widgets
  • user-avatar
    Login

    Hourly Weather Belfast

    Today, 17 January, Thursday

    Time Temperature Precipitation Wind Pressure Humidity
    00:00 +1°C° 0 mm 8 mps 753 mmHg 71%
    01:00 0°C° 0 mm 8 mps 754 mmHg 68%
    02:00 0°C° 0 mm 8 mps 755 mmHg 65%
    03:00 0°C° 0 mm 7 mps 756 mmHg 62%
    04:00 0°C° 0 mm 7 mps 756 mmHg 63%
    05:00 0°C° 0 mm 7 mps 757 mmHg 63%
    06:00 +1°C° 0 mm 6 mps 758 mmHg 63%
    07:00 0°C° 0 mm 5 mps 758 mmHg 65%
    08:00 0°C° 0 mm 4 mps 759 mmHg 68%
    09:00 0°C° 0 mm 4 mps 759 mmHg 70%
    10:00 +1°C° 0 mm 4 mps 760 mmHg 68%
    11:00 +3°C° 0 mm 3 mps 760 mmHg 66%
    12:00 +4°C° 0 mm 3 mps 761 mmHg 64%
    13:00 +4°C° 0 mm 3 mps 761 mmHg 65%
    14:00 +5°C° 0 mm 2 mps 761 mmHg 67%
    15:00 +4°C° 0 mm 2 mps 761 mmHg 68%
    16:00 +5°C° 0 mm 1 mps 761 mmHg 71%
    17:00 +4°C° 0 mm 1 mps 761 mmHg 73%
    18:00 +3°C° 0 mm 1 mps 761 mmHg 76%
    19:00 +3°C° 0 mm 1 mps 761 mmHg 77%
    20:00 +3°C° 0 mm 1 mps 760 mmHg 78%
    21:00 +2°C° 0 mm 2 mps 760 mmHg 79%
    22:00 +2°C° 0 mm 2 mps 760 mmHg 77%
    23:00 +2°C° 0 mm 3 mps 760 mmHg 75%

    Tomorrow, 18 January, Friday

    Time Temperature Precipitation Wind Pressure Humidity
    00:00 +1°C° 0 mm 4 mps 759 mmHg 73%
    01:00 +1°C° 0 mm 4 mps 758 mmHg 72%
    02:00 +1°C° 0 mm 5 mps 758 mmHg 72%
    03:00 +1°C° 0 mm 5 mps 757 mmHg 72%
    04:00 +2°C° 0.1 mm 6 mps 756 mmHg 74%
    05:00 +2°C° 0.1 mm 6 mps 756 mmHg 75%
    06:00 +3°C° 0.1 mm 6 mps 755 mmHg 77%
    07:00 +3°C° 0.6 mm 7 mps 754 mmHg 81%
    08:00 +3°C° 0.6 mm 7 mps 754 mmHg 84%
    09:00 +3°C° 0.6 mm 7 mps 753 mmHg 88%
    10:00 +3°C° 0.6 mm 7 mps 753 mmHg 89%
    11:00 +4°C° 0.6 mm 8 mps 753 mmHg 89%
    12:00 +4°C° 0.6 mm 8 mps 752 mmHg 90%
    13:00 +4°C° 1 mm 7 mps 752 mmHg 91%
    14:00 +5°C° 1 mm 7 mps 751 mmHg 93%
    15:00 +5°C° 1 mm 6 mps 751 mmHg 94%
    16:00 +6°C° 0.2 mm 5 mps 751 mmHg 94%
    17:00 +5°C° 0.2 mm 4 mps 750 mmHg 94%
    18:00 +5°C° 0.2 mm 3 mps 750 mmHg 94%
    19:00 +5°C° 0.1 mm 3 mps 750 mmHg 95%
    20:00 +4°C° 0.1 mm 3 mps 750 mmHg 95%
    21:00 +5°C° 0.1 mm 2 mps 750 mmHg 96%
    22:00 +5°C° 0.3 mm 2 mps 750 mmHg 96%
    23:00 +5°C° 0.3 mm 2 mps 750 mmHg 97%

    Day after tomorrow, 19 January, Saturday

    Time Temperature Precipitation Wind Pressure Humidity
    00:00 +5°C° 0.3 mm 2 mps 750 mmHg 97%
    01:00 +5°C° 0.1 mm 2 mps 750 mmHg 96%
    02:00 +4°C° 0.1 mm 2 mps 750 mmHg 96%
    03:00 +4°C° 0.1 mm 2 mps 750 mmHg 95%
    04:00 +4°C° 0 mm 2 mps 750 mmHg 95%
    05:00 +5°C° 0 mm 1 mps 750 mmHg 95%
    06:00 +5°C° 0 mm 1 mps 750 mmHg 95%
    07:00 +5°C° 0 mm 1 mps 750 mmHg 95%
    08:00 +5°C° 0 mm 1 mps 750 mmHg 95%
    09:00 +4°C° 0 mm 0 mps 751 mmHg 95%
    10:00 +5°C° 0 mm 0 mps 751 mmHg 93%
    11:00 +5°C° 0 mm 0 mps 751 mmHg 91%
    12:00 +6°C° 0 mm 0 mps 752 mmHg 89%
    13:00 +7°C° 0 mm 1 mps 752 mmHg 90%
    14:00 +7°C° 0 mm 1 mps 752 mmHg 90%
    15:00 +7°C° 0 mm 1 mps 752 mmHg 91%
    16:00 +7°C° 0 mm 1 mps 753 mmHg 91%
    17:00 +6°C° 0 mm 1 mps 753 mmHg 92%
    18:00 +6°C° 0 mm 1 mps 754 mmHg 93%
    19:00 +6°C° 0 mm 1 mps 754 mmHg 93%
    20:00 +6°C° 0 mm 1 mps 755 mmHg 93%
    21:00 +4°C° 0 mm 2 mps 755 mmHg 93%
    22:00 +5°C° 0 mm 2 mps 756 mmHg 94%
    23:00 +5°C° 0 mm 2 mps 756 mmHg 94%

    20 January, Sunday

    Time Temperature Precipitation Wind Pressure Humidity
    00:00 +5°C° 0 mm 2 mps 757 mmHg 94%
    01:00 +4°C° 0.7 mm 4 mps 757 mmHg 92%
    02:00 +4°C° 0.7 mm 6 mps 758 mmHg 90%
    03:00 +3°C° 0.7 mm 9 mps 758 mmHg 88%
    04:00 +2°C° 0.2 mm 8 mps 759 mmHg 86%
    05:00 +2°C° 0.2 mm 8 mps 759 mmHg 84%
    06:00 +2°C° 0.2 mm 8 mps 760 mmHg 83%
    07:00 +1°C° 0 mm 8 mps 761 mmHg 81%
    08:00 +2°C° 0 mm 7 mps 762 mmHg 80%
    09:00 0°C° 0 mm 7 mps 763 mmHg 79%
    10:00 +2°C° 0 mm 7 mps 764 mmHg 77%
    11:00 +3°C° 0 mm 7 mps 764 mmHg 75%
    12:00 +4°C° 0 mm 7 mps 765 mmHg 73%
    13:00 +4°C° 0 mm 7 mps 766 mmHg 73%
    14:00 +3°C° 0 mm 7 mps 766 mmHg 72%
    15:00 +3°C° 0 mm 6 mps 766 mmHg 72%
    16:00 +2°C° 0 mm 6 mps 767 mmHg 72%
    17:00 +2°C° 0 mm 6 mps 768 mmHg 73%
    18:00 +1°C° 0 mm 5 mps 768 mmHg 74%
    19:00 +1°C° 0 mm 5 mps 768 mmHg 76%
    20:00 0°C° 0 mm 4 mps 769 mmHg 78%
    21:00 0°C° 0 mm 4 mps 769 mmHg 79%
    22:00 0°C° 0 mm 3 mps 769 mmHg 82%
    23:00 0°C° 0 mm 3 mps 770 mmHg 84%

    21 January, Monday

    Time Temperature Precipitation Wind Pressure Humidity
    00:00 0°C° 0 mm 3 mps 770 mmHg 87%
    01:00 0°C° 0 mm 3 mps 769 mmHg 86%
    02:00 0°C° 0 mm 3 mps 769 mmHg 86%
    03:00 -1°C° 0 mm 3 mps 769 mmHg 86%
    04:00 0°C° 0 mm 3 mps 768 mmHg 85%
    05:00 0°C° 0 mm 3 mps 768 mmHg 85%
    06:00 0°C° 0 mm 3 mps 767 mmHg 85%
    07:00 -1°C° 0 mm 4 mps 767 mmHg 83%
    08:00 -1°C° 0 mm 4 mps 766 mmHg 81%
    09:00 0°C° 0 mm 5 mps 765 mmHg 78%
    10:00 -1°C° 0 mm 6 mps 764 mmHg 77%
    11:00 +1°C° 0 mm 6 mps 763 mmHg 75%
    12:00 +2°C° 0 mm 7 mps 762 mmHg 73%
    13:00 +1°C° 0.1 mm 8 mps 760 mmHg 75%
    14:00 +2°C° 0.1 mm 8 mps 758 mmHg 77%
    15:00 +2°C° 0.1 mm 9 mps 756 mmHg 78%
    16:00 +2°C° 0.8 mm 9 mps 754 mmHg 81%
    17:00 +2°C° 0.8 mm 10 mps 753 mmHg 83%
    18:00 +2°C° 0.8 mm 10 mps 751 mmHg 86%
    19:00 +1°C° 0.7 mm 10 mps 750 mmHg 86%
    20:00 +1°C° 0.7 mm 9 mps 750 mmHg 86%
    21:00 0°C° 0.7 mm 9 mps 749 mmHg 86%
    22:00 0°C° 0.1 mm 8 mps 749 mmHg 84%
    23:00 0°C° 0.1 mm 7 mps 749 mmHg 83%

    22 January, Tuesday

    Time Temperature Precipitation Wind Pressure Humidity
    00:00 -1°C° 0.1 mm 7 mps 748 mmHg 82%
    01:00 -1°C° 0 mm 6 mps 749 mmHg 82%
    02:00 -1°C° 0 mm 6 mps 749 mmHg 83%
    03:00 -2°C° 0 mm 6 mps 749 mmHg 84%
    04:00 -2°C° 0 mm 6 mps 749 mmHg 83%
    05:00 -1°C° 0 mm 6 mps 749 mmHg 82%
    06:00 -1°C° 0 mm 7 mps 750 mmHg 81%
    07:00 -1°C° 0 mm 6 mps 750 mmHg 81%
    08:00 -2°C° 0 mm 6 mps 750 mmHg 81%
    09:00 -1°C° 0 mm 5 mps 750 mmHg 81%
    10:00 -1°C° 0 mm 6 mps 751 mmHg 79%
    11:00 +1°C° 0 mm 6 mps 751 mmHg 76%
    12:00 +2°C° 0 mm 6 mps 751 mmHg 74%
    13:00 +2°C° 0 mm 6 mps 751 mmHg 74%
    14:00 +2°C° 0 mm 6 mps 751 mmHg 73%
    15:00 +2°C° 0 mm 6 mps 751 mmHg 73%
    16:00 +1°C° 0 mm 6 mps 751 mmHg 74%
    17:00 +1°C° 0 mm 6 mps 752 mmHg 75%
    18:00 0°C° 0 mm 5 mps 752 mmHg 76%
    19:00 0°C° 0 mm 5 mps 753 mmHg 78%
    20:00 -1°C° 0 mm 5 mps 753 mmHg 79%
    21:00 -1°C° 0 mm 5 mps 753 mmHg 81%
    22:00 -1°C° 0 mm 4 mps 753 mmHg 81%
    23:00 -1°C° 0 mm 4 mps 754 mmHg 82%
    Show more